Location: Pasarilla del Rebollar
(40.6790°N, 5.0062°W)
Time: 11:06:36
(UTC+00:00)

NOSS 3-4 (A) - Pass Details

Date: 22 April 2026
Orbit: 769 x 1442 km, 63.4° (Epoch: 10 January)

Event Time Altitude Azimuth Distance (km) Brightness Sun altitude
Rises 03:34:45 0° 326° (NW) 3,751 6.6 -20.4°
Reaches altitude 10° 03:37:12 10° 328° (NNW) 2,886 6.0 -20.0°
Maximum altitude 03:44:10 79° 55° (NE) 1,218 4.0 -19.0°
Drops below altitude 10° 03:52:20 10° 142° (SE) 3,358 6.3 -17.7°
Sets 03:55:22 0° 144° (SE) 4,397 6.9 -17.2°
